Regional Weather Roundup
Issued by NWS Sterling, VA

Home | Current Version | Previous Version | Graphics & Text | Print | Product List | Glossary On
Versions: 1 2 3 4 5 6 7 8 9 10 11 12 13 14 15 16 17 18 19 20 21 22 23 24 25 26 27 28
000
ASUS41 KLWX 300911
RWRLWX

REGIONAL WEATHER ROUNDUP
NATIONAL WEATHER SERVICE BALTIMORE MD/WASHINGTON DC
500 AM EDT FRI SEP 30 2016

Note: "FAIR" indicates few or no clouds below 12,000 feet
with no significant weather and/or obstructions to visibility.
 TC=TEMPERATURE CELSIUS

 * =Non NWS site. Station does not report precipitation (e.g. rain,
    snow, etc.), thunder, or fog.

DCZ001-MDZ009-015-VAZ040>042-051-053>054-301000-
WASHINGTON METRO

CITY           SKY/WX    TMP DP  RH WIND       PRES   REMARKS
WASHINGTON NAT CLOUDY    64  62  93 NE16G26   30.13R
DULLES         LGT RAIN  61  59  93 NE14      30.14R
ANDREWS AFB    CLOUDY    61  59  93 NE14G22   30.11S
FT BELVOIR     CLOUDY    63  60  90 VRB6      30.11S
QUANTICO       LGT RAIN  66  61  84 NE16G24   30.11S
LEESBURG*      CLOUDY    61  61 100 NE8       30.17R
MANASSAS*      CLOUDY    63  61  94 NE7       30.13S
GAITHERSBURG*  CLOUDY    59  55  88 E5        30.18S

$$

MDZ006>007-011-014-301000-
BALTIMORE METRO

CITY           SKY/WX    TMP DP  RH WIND       PRES   REMARKS
BWI AIRPORT    LGT RAIN  60  58  92 NE14      30.15S
MD SCIENCE CTR   N/A     60  56  86 MISG      30.16F
ANNAPOLIS      CLOUDY    64  61  90 NE10      30.14S

$$

MDZ012-015-019>023-301000-
MARYLAND EASTERN SHORE

CITY           SKY/WX    TMP DP  RH WIND       PRES   REMARKS
OCEAN CITY     CLOUDY   N/A N/A N/A E16       30.04S
SALISBURY      HVY RAIN  70  69  97 NE7       30.05S FOG

$$

MDZ017>025-301000-
SOUTHERN MARYLAND

CITY           SKY/WX    TMP DP  RH WIND       PRES   REMARKS
PATUXENT RIVER LGT RAIN  67  64  90 N13       30.07R
ST INIGOES     LGT RAIN  68  66  93 N8        30.05S
LEONARDTOWN*   NOT AVBL

$$

MDZ003>005-301000-
NORTH CENTRAL MARYLAND

CITY           SKY/WX    TMP DP  RH WIND       PRES   REMARKS
FREDERICK*     NOT AVBL
HAGERSTOWN APT LGT RAIN  59  55  87 NE15      30.19R

$$

MDZ501>502-301000-
WESTERN MARYLAND

CITY           SKY/WX    TMP DP  RH WIND       PRES   REMARKS
OAKLAND*       NOT AVBL
CUMBERLAND*    CLOUDY    59  59 100 N3        30.23R

$$

VAZ025>031-301000-
SHENANDOAH VALLEY

CITY           SKY/WX    TMP DP  RH WIND       PRES   REMARKS
WINCHESTER*    DRIZZLE   59  59 100 NE5       30.17R
FRONT ROYAL*   CLOUDY    59  59 100 NE8       30.14S
LURAY*         RAIN     N/A N/A N/A NE12      30.13R
NEW MARKET*    CLOUDY   N/A N/A N/A NE14G20   30.11S
STAUNTON*      CLOUDY    61  60  94 NE6       30.12R
WAYNESBORO*    CLOUDY    62  61  96 CALM      30.10S

$$

WVZ021-048>050-054>055-301000-
EASTERN WEST VIRGINIA PANHANDLE

CITY           SKY/WX    TMP DP  RH WIND       PRES   REMARKS
MARTINSBURG    LGT RAIN  58  57  97 N9        30.17R FOG
PETERSBURG*    RAIN      61  58  91 CALM      30.14R

$$

VAZ036>039-050-301000-
CENTRAL FOOTHILLS

CITY           SKY/WX    TMP DP  RH WIND       PRES   REMARKS
CHARLOTTESVILL CLOUDY    64  61  90 NE17G24   30.09R FOG
CULPEPER*      DRIZZLE   63  62  99 NE6       30.13R
ORANGE*        HVY RAIN  63  63 100 N6        30.12R
GORDONSVILLE*  NOT AVBL
WARRENTON*     DRIZZLE   63  58  85 NE8       30.12R

$$

VAZ055>057-301000-
NORTH AND CENTRAL PIEDMONT

CITY           SKY/WX    TMP DP  RH WIND       PRES   REMARKS
FREDERICKSBRG* DRIZZLE   64  64 100 N6        30.09S
STAFFORD*      DRIZZLE   63  63 100 NE8       30.14S

$$

NCZ024-NYZ072-PAZ021-071-VAZ022-071-301000-
OTHER REGIONAL OBSERVATIONS

CITY           SKY/WX    TMP DP  RH WIND       PRES   REMARKS
NEW YORK CITY  CLOUDY    58  49  72 NE12G26   30.33S
PHILADELPHIA   HVY RAIN  58  57  97 NE17G23   30.21R FOG
PITTSBURGH     CLOUDY    57  57 100 NE9       30.17R
ROANOKE        MOCLDY    69  67  93 E9        30.03S
RICHMOND       LGT RAIN  67  67 100 NE8       30.05R FOG
RALEIGH        MOCLDY    73  71  93 SE3       29.99S

$$

ANZ530>537-301000-
MARINE OBSERVATIONS

STATION/POSITION TIME  TEMP    WIND        PRES
                       AIR SEA DIR/SP/G
                 (UTC) (F)     (DEG/KT/KT) (MB)
THOMAS PT LIGHT  0900   63 71   40/ 24/ 27 1021.0S
BALT KEY BRIDGE  0848   60      20/ 12/ 16 1020.9F
COVE POINT       0848   65      60/ 23/ 28 1018.6R
LEWISETTA        0848   70 72   50/ 11/ 16 1017.2R
SOLOMONS ISLAND  0848   67 73   10/  9/ 14   N/A
PINEY POINT      0848           50/ 12/ 15   N/A

$$





USA.gov is the U.S. government's official web portal to all federal, state and local government web resources and services.